STARLINK-6157, 56379

Orbit data source: Space-Track

STARLINK-6157, 56379 is a payload satellite owned by SpaceX/Seattle (US) in LEO that was launched on Thu, 04 May 2023 UTC via an FALCON 9 launch vehicle from the Air Force Eastern Test Range (AFETR). Payload-class satellites include a variety of spacecraft equipped with specific instruments for various scientific and technological missions. These include communications satellites like Starlink; space stations such as the ISS; scientific satellites like the Hubble; Earth observation satellites from companies like Planet Labs, Umbra, and HawkEye 360; GPS; miniature CubeSats for education and research; and military/defense satellites.

Loading next visibility...
Identifier
56379, 2023-061F
Orbit
LEO
Country
Flag of USUS
Related business
Manufacturer
SpaceX/Seattle
Mission
Operational Commercial Communications
Bus & Motor
STARLINK, Unknown motor
Mass
305 kg wet, ~290 kg dry
Launch date (UTC)
2023-05-04 (3 years ago)
Launch vehicle
FALCON 9
Launch site
Air Force Eastern Test Range (AFETR)
Object type
Payload
Rocket body
Debris
Shape & HBR
Box + 1 Pan, 10.1 m
Radar Cross Section
11.087 m², Large (>1 m²)

Expand to show TLE details & history
Last TLE update: 2 days ago

TLE from 2 days ago
0 STARLINK-6157
1 56379U 23061F   26171.16465469  .00000687  00000-0  34506-4 0  9993
2 56379  43.0046 339.0283 0001208 266.8189  93.2524 15.27580244173529
Epoch: 2026-06-20T03:57Z
TLE epoch observation values (Epoch: 2026-06-20T03:57:06.165Z)
Latitude
-0.00004°
Longitude
11.36937°
Altitude
482.871 km
Speed
7.626 km/s
True Right ascension
22h 36m 06s
True Declination
0° 00' 00"
Sunlit
Object was in daylight at epoch
Visualization orbit readout
Latitude
Unknown
Longitude
Unknown
Altitude
Unknown
Speed
Unknown
Apparent Right ascension
Unknown
Apparent Declination
Unknown
Sunlit
N/A
Visualization observer readout
Local Sidereal Time
21:33:07
Azimuth
Unknown
Elevation
Unknown
Doppler factor
Unknown
Orbital elements
Apogee altitude
485.822 km
Perigee altitude
484.164 km
Semi-major axis
6,863.13 km
Eccentricity
0.00012
Inclination
43.0046°
RAAN
339.0283°
Arg. of periapsis
266.8189°
True anomaly
93.26622°
Mean anomaly
93.2524°
Eccentric anomaly
93.25931°
Mean motion
3.81733 °/min
Orbital period
94.31 mins
BSTAR
0.000034506
Loading maneuver chart data...
Computing Atmospheric mass density...
Loading historical data...
Loading historical data...
Loading historical data...
Loading historical data...
Loading historical data...
Loading historical data...
Loading historical data...

Documentation

Showing up to 5 results
|